Voltar ao catálogo

COSMOS 2251 DEB

AtivoLEO
NORAD 34953·DEBRIS·🇷🇺 Russia

Lançado Jun 16, 1993 de Plesetsk Cosmodrome

Loading…

Próximas Passagens (próximas 24 horas)

TLE

AtualizadoSource: Space-Track

Época: Sep 14, 2026, 08:11 UTC

1 34953U 93036AEG 26257.34150922  .00003059  00000-0  48687-3 0  9996
2 34953  74.0907 214.5250 0053440 135.7816  15.9528 14.71511290921798

Acompanhe COSMOS 2251 DEB em tempo real com AllMySat

Download on the App Store